Location: Unspecified
(0.0000°N, 0.0000°E)
Time: 18:47:28
(UTC+00:00)

CUTE-I - Pass Details

Date: 01 June 2019
Orbit: 810 x 825 km, 98.7° (Epoch: 24 June)

Event Time Altitude Azimuth Distance (km) Brightness Sun altitude
Rises 18:17:57 0° 177° (S) 3,351 ? -4.7°
Reaches altitude 10° 18:20:21 10° 182° (S) 2,415 ? -5.2°
Maximum altitude 18:25:32 51° 257° (WSW) 1,015 ? -6.4°
Drops below altitude 10° 18:30:40 10° 333° (NNW) 2,396 ? -7.6°
Sets 18:33:03 0° 338° (NNW) 3,323 ? -8.1°
